sat.trackr.live / text

‹ back to catalog

BEIDOU-3 G4 (C62)

NORAD 56564 · 2023-066A

PAYLOAD ACTIVE UNKNOWN

§ Identity

Operator
Country
PRC
Launch date
2023-05-17
Launch site
XICLF
Launch vehicle
Mass (kg)
RCS (m²)

Purposes: comms, nav

External: N2YO · Heavens-Above · Gunter

§ Orbital elements

Epoch: 2026-09-19T21:03:27.808416Z

Period
1,436.14 min
Inclination
0.4408°
Eccentricity
0.0005347
Mean motion
1.00268831 rev/d
Perigee alt
35,764.9 km
Apogee alt
35,810.0 km
Semi-major
42,165.6 km
B*
0.0000e+0
RAAN
358.9188°
Arg perigee
196.9141°
Mean anomaly
258.8269°
Rev number
1,234

§ Raw data

BEIDOU-3 G4 (C62)1 56564U 23066A   26262.87740519 -.00000285  00000+0  00000+0 0  99962 56564   0.4408 358.9188 0005347 196.9141 258.8269  1.00268831 12345

JSON: /api/v1/satellites/56564 · /tle

For live sub-satellite position, see the globe view (requires WebGL).

§ Visibility from observer

Set your observer location to see the next 7 days of passes ≥ 10°. The values pass through the URL so the page stays shareable.

No JS? Fill the form by hand. The geolocation button needs JavaScript.